Jackson, TN

5:34 PM CDT on June 23, 2017 (GMT -0500)
McKellar-Sipes Regional

Weather History for KMKL - February, 2013

Change the Weather History Date:

Sunday, February 10, 2013

  Actual Average Record
Temperature  
Mean Temperature 55 °F 41 °F  
Max Temperature 59 °F 51 °F 73 °F (1952)
Min Temperature 50 °F 31 °F 4 °F (1979)
Degree Days  
Heating Degree Days 10 24  
Month to date heating degree days 208 249  
Since 1 July heating degree days 2277 2498  
Cooling Degree Days 0 0  
Month to date cooling degree days 0 0  
Year to date cooling degree days 4 0  
Growing Degree Days 4 (Base 50)    
Moisture  
Dew Point 47 °F    
Average Humidity 70    
Maximum Humidity 93    
Minimum Humidity 46    
Precipitation  
Precipitation 0.62 in 0.15 in 2.78 in (1966)
Month to date precipitation 1.30 1.51  
Year to date precipitation 9.59 5.58  
Snow  
Snow 0.00 in - - ()
Month to date snowfall 0.1  
Snow Depth 0.00 in    
Sea Level Pressure  
Sea Level Pressure 29.91 in    
Wind  
Wind Speed 11 mph (South)    
Max Wind Speed 21 mph    
Max Gust Speed 33 mph    
Visibility 8 miles    
Events Rain , Thunderstorm    
T = Trace of Precipitation, MM = Missing Value Source: NWS Daily Summary

Daily Weather History Graph

Daily Weather History Graph

Search for Another Location

Airport or City:

Trip Planner

Search our weather history database for the weather conditions in past years. The results will help you decide how hot, cold, wet, or windy it might be!

Date:

Astronomy

Feb. 10, 2013 Rise Set
Actual Time 6:47 AM CST 5:32 PM CST
Civil Twilight 6:21 AM CST 5:59 PM CST
Nautical Twilight 5:50 AM CST 6:29 PM CST
Astronomical Twilight 5:21 AM CST 6:59 PM CST
Moon 6:39 AM CST (2/10) 6:19 PM CST (2/10)
Length of Visible Light 11h 38m
Length of Day
10h 45m
New Moon, 0% of the Moon is Illuminated
Feb 10
New Moon
Feb 17
First Quarter
Feb 25
Full
Mar 4
Last Quarter
Mar 11
New

Hourly Weather History & Observations

Time (CST) Temp. Dew Point Humidity Pressure Visibility Wind Dir Wind Speed Gust Speed Precip Events Conditions
12:53 AM 51.1 °F 37.0 °F 59% 30.07 in 10.0 mi South 8.1 mph - 0.00 in   Overcast
1:53 AM 53.1 °F 34.0 °F 48% 30.05 in 10.0 mi SSE 10.4 mph 16.1 mph N/A   Mostly Cloudy
2:53 AM 54.0 °F 33.1 °F 45% 30.03 in 10.0 mi SSE 11.5 mph 20.7 mph N/A   Mostly Cloudy
3:53 AM 53.1 °F 34.0 °F 48% 30.02 in 10.0 mi SSE 8.1 mph - N/A   Overcast
4:53 AM 53.1 °F 34.0 °F 48% 29.99 in 10.0 mi SSE 8.1 mph 16.1 mph N/A   Clear
5:53 AM 53.1 °F 35.1 °F 50% 29.99 in 10.0 mi South 9.2 mph 17.3 mph N/A   Mostly Cloudy
6:53 AM 53.1 °F 36.0 °F 52% 29.98 in 10.0 mi SSE 10.4 mph 23.0 mph N/A   Mostly Cloudy
7:53 AM 55.0 °F 37.0 °F 51% 29.96 in 10.0 mi SSE 10.4 mph 19.6 mph N/A   Overcast
8:53 AM 54.0 °F 39.0 °F 57% 29.94 in 10.0 mi South 13.8 mph 33.4 mph 0.01 in   Overcast
9:49 AM 53.6 °F 42.8 °F 67% 29.92 in 10.0 mi South 10.4 mph 24.2 mph 0.00 in Rain Light Rain
9:53 AM 53.1 °F 42.1 °F 66% 29.93 in 10.0 mi South 13.8 mph 23.0 mph 0.00 in   Overcast
10:38 AM 51.8 °F 46.4 °F 82% 29.91 in 5.0 mi SSE 13.8 mph 25.3 mph 0.05 in Rain Rain
10:53 AM 51.1 °F 46.9 °F 86% 29.92 in 8.0 mi South 9.2 mph 20.7 mph 0.06 in Rain Light Rain
11:01 AM 51.8 °F 46.4 °F 82% 29.92 in 3.0 mi South 11.5 mph 18.4 mph 0.04 in Rain , Thunderstorm Heavy Rain
11:26 AM 51.8 °F 48.2 °F 88% 29.97 in 5.0 mi SSW 8.1 mph - 0.14 in Rain Rain
11:43 AM 50.0 °F 48.2 °F 94% 29.97 in 5.0 mi South 5.8 mph - 0.19 in Rain , Thunderstorm Rain
11:53 AM 50.0 °F 48.0 °F 93% 29.96 in 3.0 mi South 9.2 mph 17.3 mph 0.23 in Rain Rain
12:04 PM 50.0 °F 48.2 °F 94% 29.96 in 2.5 mi South 8.1 mph - 0.08 in Rain Heavy Rain
12:14 PM 50.0 °F 48.2 °F 94% 29.95 in 3.0 mi South 6.9 mph - 0.13 in Rain Heavy Rain
12:27 PM 50.0 °F 48.2 °F 94% 29.95 in 2.0 mi SSE 4.6 mph - 0.22 in Rain Heavy Rain
12:38 PM 50.0 °F 48.2 °F 94% 29.95 in 3.0 mi South 5.8 mph - 0.27 in Rain Rain
12:53 PM 50.0 °F 48.9 °F 96% 29.92 in 6.0 mi SSE 6.9 mph - 0.30 in Rain Light Rain
1:41 PM 51.8 °F 48.2 °F 88% 29.79 in 10.0 mi SSE 10.4 mph 19.6 mph 0.02 in   Mostly Cloudy
1:49 PM 51.8 °F 48.2 °F 88% 29.79 in 10.0 mi SSE 11.5 mph 20.7 mph 0.02 in   Mostly Cloudy
1:53 PM 53.1 °F 50.0 °F 89% 29.80 in 10.0 mi SSE 15.0 mph 23.0 mph 0.02 in   Mostly Cloudy
2:43 PM 53.6 °F 50.0 °F 88% 29.81 in 10.0 mi SSE 10.4 mph 21.9 mph N/A   Scattered Clouds
2:53 PM 54.0 °F 51.1 °F 90% 29.80 in 10.0 mi SSE 10.4 mph 19.6 mph N/A   Scattered Clouds
3:53 PM 55.9 °F 51.1 °F 84% 29.80 in 10.0 mi SSE 15.0 mph 24.2 mph N/A   Scattered Clouds
4:48 PM 55.4 °F 51.8 °F 88% 29.79 in 10.0 mi South 15.0 mph 21.9 mph N/A   Mostly Cloudy
4:53 PM 55.9 °F 52.0 °F 87% 29.79 in 10.0 mi South 12.7 mph 21.9 mph N/A   Mostly Cloudy
5:53 PM 55.9 °F 53.1 °F 90% 29.80 in 10.0 mi SSW 10.4 mph - N/A   Mostly Cloudy
6:53 PM 57.9 °F 55.0 °F 90% 29.83 in 10.0 mi SSW 13.8 mph 21.9 mph N/A   Overcast
7:53 PM 57.9 °F 55.9 °F 93% 29.85 in 10.0 mi SW 10.4 mph - N/A   Overcast
8:29 PM 57.2 °F 55.4 °F 94% 29.87 in 10.0 mi SSW 8.1 mph - N/A   Overcast
8:53 PM 59.0 °F 55.9 °F 90% 29.87 in 10.0 mi SW 6.9 mph - N/A   Overcast
9:24 PM 59.0 °F 55.4 °F 88% 29.88 in 10.0 mi SW 11.5 mph - N/A   Partly Cloudy
9:53 PM 57.9 °F 55.9 °F 93% 29.88 in 10.0 mi SW 10.4 mph - N/A   Partly Cloudy
10:53 PM 57.9 °F 55.0 °F 90% 29.91 in 10.0 mi SSW 10.4 mph - N/A   Partly Cloudy
11:53 PM 57.0 °F 54.0 °F 89% 29.93 in 10.0 mi SW 12.7 mph - N/A   Clear